"Sample Date","Sample Time","Sensor Name","Sample Value","Units","Flow Rate","Sample Interval","Sample Volume","Laser Status","Number Channels","Micron Size 0","Counts/Channel 0","Micron Size 1","Counts/Channel 1","Micron Size 2","Counts/Channel 2","Micron Size 3","Counts/Channel 3","Micron Size 4","Counts/Channel 4","Micron Size 5","Counts/Channel 5","Micron Size 6","Counts/Channel 6","Micron Size 7","Counts/Channel 7","Micron Size 8","Counts/Channel 8","Micron Size 9","Counts/Channel 9","Micron Size 10","Counts/Channel 10","Micron Size 11","Counts/Channel 11","Micron Size 12","Counts/Channel 12","Micron Size 13","Counts/Channel 13","Micron Size 14","Counts/Channel 14","Micron Size 15","Counts/Channel 15","Micron Size 16","Counts/Channel 16","Micron Size 17","Counts/Channel 17","Micron Size 18","Counts/Channel 18","Micron Size 19","Counts/Channel 19","Micron Size 20","Counts/Channel 20","Micron Size 21","Counts/Channel 21","Micron Size 22","Counts/Channel 22","Micron Size 23","Counts/Channel 23","Micron Size 24","Counts/Channel 24","Micron Size 25","Counts/Channel 25","Micron Size 26","Counts/Channel 26","Micron Size 27","Counts/Channel 27","Micron Size 28","Counts/Channel 28","Micron Size 29","Counts/Channel 29","Micron Size 30","Counts/Channel 30","Micron Size 31","Counts/Channel 31"
"07/02/06","06:00:03","AMMA06",65440.000,"cc",28279.459,6.00,2827.946,1,6,0.100,30204.000,0.200,27068.000,0.300,5803.000,0.500,1404.000,1.000,957.000,5.000,4.000
"07/02/06","06:00:09","AMMA06",65638.000,"cc",28266.693,6.00,2826.669,1,6,0.100,30676.000,0.200,26826.000,0.300,5753.000,0.500,1398.000,1.000,985.000,5.000,0
"07/02/06","06:00:15","AMMA06",65670.000,"cc",28358.930,6.00,2835.893,1,6,0.100,30508.000,0.200,26803.000,0.300,5923.000,0.500,1422.000,1.000,1014.000,5.000,0
"07/02/06","06:00:21","AMMA06",65887.000,"cc",28317.266,6.00,2831.727,1,6,0.100,30662.000,0.200,26881.000,0.300,5868.000,0.500,1451.000,1.000,1025.000,5.000,0
"07/02/06","06:00:27","AMMA06",66166.000,"cc",28320.311,6.00,2832.031,1,6,0.100,30697.000,0.200,27068.000,0.300,5908.000,0.500,1465.000,1.000,1027.000,5.000,1.000
"07/02/06","06:00:33","AMMA06",66279.000,"cc",28277.186,6.00,2827.719,1,6,0.100,30603.000,0.200,27271.000,0.300,5918.000,0.500,1482.000,1.000,1004.000,5.000,1.000
"07/02/06","06:00:39","AMMA06",65677.000,"cc",28289.324,6.00,2828.933,1,6,0.100,30725.000,0.200,26762.000,0.300,5772.000,0.500,1407.000,1.000,1011.000,5.000,0
"07/02/06","06:00:45","AMMA06",65570.000,"cc",28351.172,6.00,2835.117,1,6,0.100,30520.000,0.200,26841.000,0.300,5792.000,0.500,1471.000,1.000,946.000,5.000,0
"07/02/06","06:00:51","AMMA06",65312.000,"cc",28371.666,6.00,2837.167,1,6,0.100,30371.000,0.200,26766.000,0.300,5706.000,0.500,1465.000,1.000,1003.000,5.000,1.000
"07/02/06","06:00:57","AMMA06",65003.000,"cc",28364.184,6.00,2836.419,1,6,0.100,30380.000,0.200,26360.000,0.300,5842.000,0.500,1399.000,1.000,1019.000,5.000,3.000
"07/02/06","06:01:03","AMMA06",65187.000,"cc",28277.068,6.00,2827.707,1,6,0.100,30359.000,0.200,26726.000,0.300,5651.000,0.500,1470.000,1.000,979.000,5.000,2.000
"07/02/06","06:01:09","AMMA06",65994.000,"cc",28304.371,6.00,2830.437,1,6,0.100,30778.000,0.200,26842.000,0.300,5881.000,0.500,1450.000,1.000,1043.000,5.000,0
"07/02/06","06:01:15","AMMA06",65284.000,"cc",28361.041,6.00,2836.104,1,6,0.100,30300.000,0.200,26825.000,0.300,5696.000,0.500,1469.000,1.000,994.000,5.000,0
"07/02/06","06:01:21","AMMA06",64865.000,"cc",28283.160,6.00,2828.316,1,6,0.100,30201.000,0.200,26332.000,0.300,5905.000,0.500,1443.000,1.000,982.000,5.000,2.000
"07/02/06","06:01:27","AMMA06",64660.000,"cc",28311.090,6.00,2831.109,1,6,0.100,30131.000,0.200,26347.000,0.300,5742.000,0.500,1452.000,1.000,987.000,5.000,1.000
"07/02/06","06:01:33","AMMA06",64745.000,"cc",28347.510,6.00,2834.751,1,6,0.100,30040.000,0.200,26446.000,0.300,5791.000,0.500,1449.000,1.000,1017.000,5.000,2.000
"07/02/06","06:01:39","AMMA06",64360.000,"cc",28328.602,6.00,2832.860,1,6,0.100,30122.000,0.200,26209.000,0.300,5668.000,0.500,1406.000,1.000,953.000,5.000,2.000
"07/02/06","06:01:45","AMMA06",64553.000,"cc",28330.906,6.00,2833.091,1,6,0.100,30056.000,0.200,26370.000,0.300,5681.000,0.500,1428.000,1.000,1017.000,5.000,1.000
"07/02/06","06:01:51","AMMA06",64473.000,"cc",28298.025,6.00,2829.803,1,6,0.100,29971.000,0.200,26347.000,0.300,5666.000,0.500,1512.000,1.000,975.000,5.000,2.000
"07/02/06","06:01:57","AMMA06",64621.000,"cc",28330.553,6.00,2833.055,1,6,0.100,30415.000,0.200,26179.000,0.300,5618.000,0.500,1427.000,1.000,979.000,5.000,3.000
"07/02/06","06:02:03","AMMA06",64158.000,"cc",28288.842,6.00,2828.884,1,6,0.100,30238.000,0.200,25826.000,0.300,5633.000,0.500,1440.000,1.000,1020.000,5.000,1.000
"07/02/06","06:02:09","AMMA06",63932.000,"cc",28280.074,6.00,2828.008,1,6,0.100,29850.000,0.200,26047.000,0.300,5684.000,0.500,1390.000,1.000,960.000,5.000,1.000
"07/02/06","06:02:15","AMMA06",63719.000,"cc",28279.209,6.00,2827.921,1,6,0.100,29514.000,0.200,26130.000,0.300,5644.000,0.500,1470.000,1.000,961.000,5.000,0
"07/02/06","06:02:21","AMMA06",64042.000,"cc",28347.002,6.00,2834.700,1,6,0.100,29873.000,0.200,26163.000,0.300,5559.000,0.500,1474.000,1.000,971.000,5.000,2.000
"07/02/06","06:02:27","AMMA06",64003.000,"cc",28329.594,6.00,2832.960,1,6,0.100,30044.000,0.200,25905.000,0.300,5527.000,0.500,1526.000,1.000,1001.000,5.000,0
"07/02/06","06:02:33","AMMA06",64134.000,"cc",28331.205,6.00,2833.121,1,6,0.100,29984.000,0.200,26253.000,0.300,5470.000,0.500,1479.000,1.000,947.000,5.000,1.000
"07/02/06","06:02:39","AMMA06",64171.000,"cc",28284.479,6.00,2828.448,1,6,0.100,30344.000,0.200,25863.000,0.300,5552.000,0.500,1430.000,1.000,980.000,5.000,2.000
"07/02/06","06:02:45","AMMA06",63788.000,"cc",28304.871,6.00,2830.487,1,6,0.100,29777.000,0.200,26109.000,0.300,5473.000,0.500,1466.000,1.000,963.000,5.000,0
"07/02/06","06:02:51","AMMA06",64432.000,"cc",28301.861,6.00,2830.186,1,6,0.100,30241.000,0.200,26110.000,0.300,5636.000,0.500,1469.000,1.000,974.000,5.000,2.000
"07/02/06","06:02:57","AMMA06",64289.000,"cc",28312.279,6.00,2831.228,1,6,0.100,29843.000,0.200,26296.000,0.300,5639.000,0.500,1476.000,1.000,1034.000,5.000,1.000
"07/02/06","06:03:03","AMMA06",64392.000,"cc",28358.799,6.00,2835.880,1,6,0.100,30159.000,0.200,26188.000,0.300,5624.000,0.500,1494.000,1.000,927.000,5.000,0
"07/02/06","06:03:09","AMMA06",64092.000,"cc",28332.588,6.00,2833.259,1,6,0.100,30078.000,0.200,26000.000,0.300,5552.000,0.500,1500.000,1.000,960.000,5.000,2.000
"07/02/06","06:03:15","AMMA06",64452.000,"cc",28318.856,6.00,2831.886,1,6,0.100,30203.000,0.200,26267.000,0.300,5577.000,0.500,1404.000,1.000,1000.000,5.000,1.000
"07/02/06","06:03:21","AMMA06",64120.000,"cc",28346.268,6.00,2834.627,1,6,0.100,29798.000,0.200,26228.000,0.300,5605.000,0.500,1486.000,1.000,1003.000,5.000,0
"07/02/06","06:03:27","AMMA06",64726.000,"cc",28289.877,6.00,2828.988,1,6,0.100,30252.000,0.200,26415.000,0.300,5583.000,0.500,1487.000,1.000,987.000,5.000,2.000
"07/02/06","06:03:33","AMMA06",63973.000,"cc",28335.356,6.00,2833.536,1,6,0.100,29917.000,0.200,26197.000,0.300,5468.000,0.500,1378.000,1.000,1010.000,5.000,3.000
"07/02/06","06:03:39","AMMA06",64714.000,"cc",28297.607,6.00,2829.761,1,6,0.100,30215.000,0.200,26377.000,0.300,5675.000,0.500,1454.000,1.000,991.000,5.000,2.000
"07/02/06","06:03:45","AMMA06",64213.000,"cc",28280.770,6.00,2828.077,1,6,0.100,30172.000,0.200,25957.000,0.300,5630.000,0.500,1478.000,1.000,975.000,5.000,1.000
"07/02/06","06:03:51","AMMA06",64321.000,"cc",28337.643,6.00,2833.764,1,6,0.100,29955.000,0.200,26297.000,0.300,5660.000,0.500,1418.000,1.000,991.000,5.000,0
"07/02/06","06:03:57","AMMA06",64167.000,"cc",28322.035,6.00,2832.204,1,6,0.100,29761.000,0.200,26317.000,0.300,5696.000,0.500,1434.000,1.000,959.000,5.000,0
"07/02/06","06:04:03","AMMA06",64760.000,"cc",28343.104,6.00,2834.311,1,6,0.100,29998.000,0.200,26463.000,0.300,5791.000,0.500,1487.000,1.000,1021.000,5.000,0
"07/02/06","06:04:09","AMMA06",64316.000,"cc",28306.109,6.00,2830.611,1,6,0.100,29713.000,0.200,26361.000,0.300,5810.000,0.500,1398.000,1.000,1032.000,5.000,2.000
"07/02/06","06:04:15","AMMA06",64302.000,"cc",28339.752,6.00,2833.975,1,6,0.100,29690.000,0.200,26478.000,0.300,5699.000,0.500,1408.000,1.000,1024.000,5.000,3.000
"07/02/06","06:04:21","AMMA06",64469.000,"cc",28266.559,6.00,2826.656,1,6,0.100,29727.000,0.200,26490.000,0.300,5839.000,0.500,1405.000,1.000,1007.000,5.000,1.000
"07/02/06","06:04:27","AMMA06",64343.000,"cc",28336.449,6.00,2833.645,1,6,0.100,29667.000,0.200,26403.000,0.300,5880.000,0.500,1412.000,1.000,980.000,5.000,1.000
"07/02/06","06:04:33","AMMA06",64668.000,"cc",28257.426,6.00,2825.743,1,6,0.100,29792.000,0.200,26521.000,0.300,5952.000,0.500,1403.000,1.000,1000.000,5.000,0
"07/02/06","06:04:39","AMMA06",64322.000,"cc",28340.078,6.00,2834.008,1,6,0.100,29377.000,0.200,26477.000,0.300,6007.000,0.500,1452.000,1.000,1009.000,5.000,0
"07/02/06","06:04:45","AMMA06",64290.000,"cc",28316.609,6.00,2831.661,1,6,0.100,29767.000,0.200,26247.000,0.300,5890.000,0.500,1457.000,1.000,929.000,5.000,0
"07/02/06","06:04:51","AMMA06",64706.000,"cc",28287.520,6.00,2828.752,1,6,0.100,29507.000,0.200,26816.000,0.300,5905.000,0.500,1451.000,1.000,1027.000,5.000,0
"07/02/06","06:04:57","AMMA06",64772.000,"cc",28272.699,6.00,2827.270,1,6,0.100,29590.000,0.200,26873.000,0.300,5865.000,0.500,1435.000,1.000,1006.000,5.000,3.000
"07/02/06","06:05:03","AMMA06",64587.000,"cc",28315.506,6.00,2831.551,1,6,0.100,29520.000,0.200,26641.000,0.300,5989.000,0.500,1457.000,1.000,979.000,5.000,1.000
"07/02/06","06:05:09","AMMA06",64525.000,"cc",28355.193,6.00,2835.520,1,6,0.100,29184.000,0.200,26915.000,0.300,5951.000,0.500,1495.000,1.000,979.000,5.000,1.000
"07/02/06","06:05:15","AMMA06",64555.000,"cc",28336.111,6.00,2833.611,1,6,0.100,29532.000,0.200,26631.000,0.300,5954.000,0.500,1381.000,1.000,1056.000,5.000,1.000
"07/02/06","06:05:21","AMMA06",64430.000,"cc",28341.123,6.00,2834.113,1,6,0.100,29473.000,0.200,26740.000,0.300,5777.000,0.500,1446.000,1.000,994.000,5.000,0
"07/02/06","06:05:27","AMMA06",64346.000,"cc",28322.254,6.00,2832.226,1,6,0.100,29427.000,0.200,26596.000,0.300,5946.000,0.500,1380.000,1.000,997.000,5.000,0
"07/02/06","06:05:33","AMMA06",64226.000,"cc",28318.047,6.00,2831.805,1,6,0.100,29317.000,0.200,26619.000,0.300,5820.000,0.500,1406.000,1.000,1063.000,5.000,1.000
"07/02/06","06:05:39","AMMA06",64192.000,"cc",28345.096,6.00,2834.510,1,6,0.100,29532.000,0.200,26362.000,0.300,5817.000,0.500,1477.000,1.000,1003.000,5.000,1.000
"07/02/06","06:05:45","AMMA06",64289.000,"cc",28352.088,6.00,2835.209,1,6,0.100,29625.000,0.200,26337.000,0.300,5866.000,0.500,1476.000,1.000,984.000,5.000,1.000
"07/02/06","06:05:51","AMMA06",64364.000,"cc",28262.836,6.00,2826.284,1,6,0.100,29632.000,0.200,26364.000,0.300,5942.000,0.500,1389.000,1.000,1037.000,5.000,0
"07/02/06","06:05:57","AMMA06",64852.000,"cc",28355.156,6.00,2835.516,1,6,0.100,29583.000,0.200,26761.000,0.300,6053.000,0.500,1408.000,1.000,1045.000,5.000,2.000
"07/02/06","06:06:03","AMMA06",64455.000,"cc",28278.063,6.00,2827.806,1,6,0.100,29429.000,0.200,26435.000,0.300,6097.000,0.500,1463.000,1.000,1029.000,5.000,2.000
"07/02/06","06:06:09","AMMA06",64973.000,"cc",28305.592,6.00,2830.559,1,6,0.100,29769.000,0.200,26836.000,0.300,5885.000,0.500,1471.000,1.000,1011.000,5.000,1.000
"07/02/06","06:06:15","AMMA06",64436.000,"cc",28364.072,6.00,2836.408,1,6,0.100,29520.000,0.200,26574.000,0.300,5956.000,0.500,1348.000,1.000,1038.000,5.000,0
"07/02/06","06:06:21","AMMA06",63972.000,"cc",28281.234,6.00,2828.124,1,6,0.100,29233.000,0.200,26499.000,0.300,5827.000,0.500,1434.000,1.000,978.000,5.000,1.000
"07/02/06","06:06:27","AMMA06",64771.000,"cc",28329.598,6.00,2832.960,1,6,0.100,29790.000,0.200,26604.000,0.300,5930.000,0.500,1454.000,1.000,992.000,5.000,1.000
"07/02/06","06:06:33","AMMA06",64330.000,"cc",28286.816,6.00,2828.682,1,6,0.100,29432.000,0.200,26510.000,0.300,5973.000,0.500,1458.000,1.000,957.000,5.000,0
"07/02/06","06:06:39","AMMA06",64094.000,"cc",28303.797,6.00,2830.380,1,6,0.100,29542.000,0.200,26330.000,0.300,5781.000,0.500,1461.000,1.000,980.000,5.000,0
"07/02/06","06:06:45","AMMA06",64200.000,"cc",28315.816,6.00,2831.582,1,6,0.100,29466.000,0.200,26499.000,0.300,5829.000,0.500,1415.000,1.000,989.000,5.000,2.000
"07/02/06","06:06:51","AMMA06",64153.000,"cc",28286.422,6.00,2828.642,1,6,0.100,29592.000,0.200,26206.000,0.300,5868.000,0.500,1460.000,1.000,1027.000,5.000,0
"07/02/06","06:06:57","AMMA06",63962.000,"cc",28328.041,6.00,2832.804,1,6,0.100,29522.000,0.200,26200.000,0.300,5810.000,0.500,1418.000,1.000,1012.000,5.000,0
"07/02/06","06:07:03","AMMA06",63961.000,"cc",28392.740,6.00,2839.274,1,6,0.100,29335.000,0.200,26439.000,0.300,5749.000,0.500,1451.000,1.000,986.000,5.000,1.000
"07/02/06","06:07:09","AMMA06",63659.000,"cc",28318.545,6.00,2831.855,1,6,0.100,29379.000,0.200,26050.000,0.300,5788.000,0.500,1450.000,1.000,992.000,5.000,0
"07/02/06","06:07:15","AMMA06",64530.000,"cc",28306.893,6.00,2830.690,1,6,0.100,29857.000,0.200,26359.000,0.300,5809.000,0.500,1477.000,1.000,1027.000,5.000,1.000
"07/02/06","06:07:21","AMMA06",63984.000,"cc",28311.049,6.00,2831.105,1,6,0.100,29725.000,0.200,26133.000,0.300,5682.000,0.500,1448.000,1.000,996.000,5.000,0
"07/02/06","06:07:27","AMMA06",63931.000,"cc",28275.777,6.00,2827.578,1,6,0.100,29689.000,0.200,26054.000,0.300,5747.000,0.500,1462.000,1.000,977.000,5.000,2.000
"07/02/06","06:07:33","AMMA06",64356.000,"cc",28249.320,6.00,2824.932,1,6,0.100,29989.000,0.200,26270.000,0.300,5623.000,0.500,1459.000,1.000,1013.000,5.000,2.000
"07/02/06","06:07:39","AMMA06",63854.000,"cc",28319.607,6.00,2831.961,1,6,0.100,29650.000,0.200,26115.000,0.300,5574.000,0.500,1496.000,1.000,1018.000,5.000,1.000
"07/02/06","06:07:45","AMMA06",64698.000,"cc",28357.285,6.00,2835.729,1,6,0.100,30019.000,0.200,26540.000,0.300,5721.000,0.500,1375.000,1.000,1041.000,5.000,2.000
"07/02/06","06:07:51","AMMA06",64792.000,"cc",28371.307,6.00,2837.131,1,6,0.100,29999.000,0.200,26477.000,0.300,5868.000,0.500,1443.000,1.000,1002.000,5.000,3.000
"07/02/06","06:07:57","AMMA06",63978.000,"cc",28350.174,6.00,2835.018,1,6,0.100,29345.000,0.200,26344.000,0.300,5808.000,0.500,1491.000,1.000,989.000,5.000,1.000
"07/02/06","06:08:03","AMMA06",64212.000,"cc",28291.895,6.00,2829.190,1,6,0.100,29719.000,0.200,26465.000,0.300,5589.000,0.500,1460.000,1.000,979.000,5.000,0
"07/02/06","06:08:09","AMMA06",65014.000,"cc",28278.363,6.00,2827.836,1,6,0.100,30222.000,0.200,26747.000,0.300,5538.000,0.500,1508.000,1.000,998.000,5.000,1.000
"07/02/06","06:08:15","AMMA06",64462.000,"cc",28312.445,6.00,2831.245,1,6,0.100,29870.000,0.200,26471.000,0.300,5721.000,0.500,1432.000,1.000,968.000,5.000,0
"07/02/06","06:08:21","AMMA06",64053.000,"cc",28327.256,6.00,2832.726,1,6,0.100,29323.000,0.200,26571.000,0.300,5770.000,0.500,1438.000,1.000,951.000,5.000,0
"07/02/06","06:08:27","AMMA06",64565.000,"cc",28331.188,6.00,2833.119,1,6,0.100,30032.000,0.200,26385.000,0.300,5635.000,0.500,1499.000,1.000,1013.000,5.000,1.000
"07/02/06","06:08:33","AMMA06",64191.000,"cc",28319.316,6.00,2831.932,1,6,0.100,29852.000,0.200,26225.000,0.300,5667.000,0.500,1468.000,1.000,978.000,5.000,1.000
"07/02/06","06:08:39","AMMA06",64445.000,"cc",28302.010,6.00,2830.201,1,6,0.100,30121.000,0.200,26112.000,0.300,5694.000,0.500,1479.000,1.000,1039.000,5.000,0
"07/02/06","06:08:45","AMMA06",64200.000,"cc",28356.270,6.00,2835.627,1,6,0.100,29872.000,0.200,26442.000,0.300,5492.000,0.500,1452.000,1.000,941.000,5.000,1.000
"07/02/06","06:08:51","AMMA06",64464.000,"cc",28274.414,6.00,2827.442,1,6,0.100,30175.000,0.200,26240.000,0.300,5608.000,0.500,1422.000,1.000,1019.000,5.000,0
"07/02/06","06:08:57","AMMA06",64487.000,"cc",28316.445,6.00,2831.645,1,6,0.100,30072.000,0.200,26348.000,0.300,5644.000,0.500,1441.000,1.000,982.000,5.000,0
"07/02/06","06:09:03","AMMA06",64096.000,"cc",28312.887,6.00,2831.289,1,6,0.100,29833.000,0.200,26121.000,0.300,5636.000,0.500,1518.000,1.000,986.000,5.000,2.000
"07/02/06","06:09:09","AMMA06",64695.000,"cc",28337.299,6.00,2833.730,1,6,0.100,30441.000,0.200,26201.000,0.300,5661.000,0.500,1440.000,1.000,952.000,5.000,0
"07/02/06","06:09:15","AMMA06",64254.000,"cc",28364.227,6.00,2836.423,1,6,0.100,30067.000,0.200,26216.000,0.300,5543.000,0.500,1462.000,1.000,965.000,5.000,1.000
"07/02/06","06:09:21","AMMA06",64437.000,"cc",28332.588,6.00,2833.259,1,6,0.100,30110.000,0.200,26154.000,0.300,5695.000,0.500,1444.000,1.000,1033.000,5.000,1.000
"07/02/06","06:09:27","AMMA06",64584.000,"cc",28265.928,6.00,2826.593,1,6,0.100,30228.000,0.200,26202.000,0.300,5643.000,0.500,1507.000,1.000,1004.000,5.000,0
"07/02/06","06:09:33","AMMA06",64245.000,"cc",28285.176,6.00,2828.518,1,6,0.100,30139.000,0.200,26177.000,0.300,5529.000,0.500,1448.000,1.000,951.000,5.000,1.000
"07/02/06","06:09:39","AMMA06",64407.000,"cc",28353.545,6.00,2835.355,1,6,0.100,29892.000,0.200,26539.000,0.300,5576.000,0.500,1428.000,1.000,970.000,5.000,2.000
"07/02/06","06:09:45","AMMA06",64282.000,"cc",28297.420,6.00,2829.742,1,6,0.100,30166.000,0.200,26193.000,0.300,5600.000,0.500,1367.000,1.000,956.000,5.000,0
"07/02/06","06:09:51","AMMA06",64046.000,"cc",28333.428,6.00,2833.343,1,6,0.100,29873.000,0.200,26007.000,0.300,5679.000,0.500,1520.000,1.000,967.000,5.000,0
"07/02/06","06:09:57","AMMA06",64573.000,"cc",28324.805,6.00,2832.481,1,6,0.100,29982.000,0.200,26305.000,0.300,5811.000,0.500,1456.000,1.000,1019.000,5.000,0
"07/02/06","06:10:03","AMMA06",64350.000,"cc",28312.537,6.00,2831.254,1,6,0.100,29886.000,0.200,26224.000,0.300,5779.000,0.500,1483.000,1.000,977.000,5.000,1.000
"07/02/06","06:10:09","AMMA06",64118.000,"cc",28333.951,6.00,2833.395,1,6,0.100,29958.000,0.200,26048.000,0.300,5715.000,0.500,1417.000,1.000,980.000,5.000,0
"07/02/06","06:10:15","AMMA06",64335.000,"cc",28313.221,6.00,2831.322,1,6,0.100,30114.000,0.200,26147.000,0.300,5618.000,0.500,1453.000,1.000,1003.000,5.000,0
"07/02/06","06:10:21","AMMA06",64496.000,"cc",28306.002,6.00,2830.600,1,6,0.100,29971.000,0.200,26309.000,0.300,5680.000,0.500,1482.000,1.000,1051.000,5.000,3.000
"07/02/06","06:10:27","AMMA06",64613.000,"cc",28340.596,6.00,2834.060,1,6,0.100,29648.000,0.200,26643.000,0.300,5737.000,0.500,1517.000,1.000,1067.000,5.000,1.000
"07/02/06","06:10:33","AMMA06",64105.000,"cc",28305.299,6.00,2830.530,1,6,0.100,29679.000,0.200,26232.000,0.300,5731.000,0.500,1443.000,1.000,1017.000,5.000,3.000
"07/02/06","06:10:39","AMMA06",64521.000,"cc",28308.682,6.00,2830.868,1,6,0.100,29880.000,0.200,26347.000,0.300,5759.000,0.500,1514.000,1.000,1020.000,5.000,1.000
"07/02/06","06:10:45","AMMA06",64122.000,"cc",28282.154,6.00,2828.216,1,6,0.100,29634.000,0.200,26334.000,0.300,5797.000,0.500,1396.000,1.000,961.000,5.000,0
"07/02/06","06:10:51","AMMA06",64365.000,"cc",28284.574,6.00,2828.458,1,6,0.100,29598.000,0.200,26535.000,0.300,5814.000,0.500,1436.000,1.000,978.000,5.000,4.000
"07/02/06","06:10:57","AMMA06",64188.000,"cc",28341.559,6.00,2834.156,1,6,0.100,29641.000,0.200,26317.000,0.300,5807.000,0.500,1392.000,1.000,1030.000,5.000,1.000
"07/02/06","06:11:03","AMMA06",63857.000,"cc",28282.672,6.00,2828.267,1,6,0.100,29295.000,0.200,26320.000,0.300,5853.000,0.500,1436.000,1.000,951.000,5.000,2.000
"07/02/06","06:11:09","AMMA06",64237.000,"cc",28333.885,6.00,2833.389,1,6,0.100,29421.000,0.200,26586.000,0.300,5753.000,0.500,1445.000,1.000,1030.000,5.000,2.000
"07/02/06","06:11:15","AMMA06",63590.000,"cc",28340.912,6.00,2834.091,1,6,0.100,29229.000,0.200,26137.000,0.300,5799.000,0.500,1418.000,1.000,1006.000,5.000,1.000
"07/02/06","06:11:21","AMMA06",63758.000,"cc",28324.227,6.00,2832.423,1,6,0.100,29455.000,0.200,25982.000,0.300,5901.000,0.500,1473.000,1.000,947.000,5.000,0
"07/02/06","06:11:27","AMMA06",64179.000,"cc",28299.850,6.00,2829.985,1,6,0.100,29468.000,0.200,26349.000,0.300,5917.000,0.500,1482.000,1.000,960.000,5.000,3.000
"07/02/06","06:11:33","AMMA06",64279.000,"cc",28334.463,6.00,2833.447,1,6,0.100,29365.000,0.200,26514.000,0.300,5956.000,0.500,1433.000,1.000,1011.000,5.000,0
"07/02/06","06:11:39","AMMA06",63883.000,"cc",28336.723,6.00,2833.672,1,6,0.100,29121.000,0.200,26367.000,0.300,5930.000,0.500,1482.000,1.000,981.000,5.000,2.000
"07/02/06","06:11:45","AMMA06",64096.000,"cc",28309.277,6.00,2830.928,1,6,0.100,29517.000,0.200,26265.000,0.300,5945.000,0.500,1370.000,1.000,999.000,5.000,0
"07/02/06","06:11:51","AMMA06",63623.000,"cc",28304.994,6.00,2830.500,1,6,0.100,29310.000,0.200,26076.000,0.300,5755.000,0.500,1482.000,1.000,1000.000,5.000,0
"07/02/06","06:11:57","AMMA06",63976.000,"cc",28338.680,6.00,2833.868,1,6,0.100,29145.000,0.200,26470.000,0.300,5928.000,0.500,1402.000,1.000,1031.000,5.000,0
"07/02/06","06:12:03","AMMA06",63912.000,"cc",28297.885,6.00,2829.789,1,6,0.100,29265.000,0.200,26441.000,0.300,5768.000,0.500,1472.000,1.000,963.000,5.000,3.000
"07/02/06","06:12:09","AMMA06",63856.000,"cc",28301.588,6.00,2830.159,1,6,0.100,29059.000,0.200,26379.000,0.300,5960.000,0.500,1426.000,1.000,1032.000,5.000,0
"07/02/06","06:12:15","AMMA06",63914.000,"cc",28269.936,6.00,2826.994,1,6,0.100,29220.000,0.200,26203.000,0.300,5916.000,0.500,1521.000,1.000,1054.000,5.000,0
"07/02/06","06:12:21","AMMA06",64195.000,"cc",28357.311,6.00,2835.731,1,6,0.100,29462.000,0.200,26621.000,0.300,5713.000,0.500,1456.000,1.000,943.000,5.000,0
"07/02/06","06:12:27","AMMA06",63780.000,"cc",28320.777,6.00,2832.078,1,6,0.100,29080.000,0.200,26217.000,0.300,5947.000,0.500,1451.000,1.000,1082.000,5.000,3.000
"07/02/06","06:12:33","AMMA06",63576.000,"cc",28272.432,6.00,2827.243,1,6,0.100,29197.000,0.200,26283.000,0.300,5681.000,0.500,1394.000,1.000,1021.000,5.000,0
"07/02/06","06:12:39","AMMA06",63892.000,"cc",28294.072,6.00,2829.408,1,6,0.100,29110.000,0.200,26678.000,0.300,5671.000,0.500,1417.000,1.000,1015.000,5.000,1.000
"07/02/06","06:12:45","AMMA06",63973.000,"cc",28342.617,6.00,2834.262,1,6,0.100,29278.000,0.200,26562.000,0.300,5669.000,0.500,1438.000,1.000,1025.000,5.000,1.000
"07/02/06","06:12:51","AMMA06",63919.000,"cc",28343.553,6.00,2834.356,1,6,0.100,29397.000,0.200,26332.000,0.300,5766.000,0.500,1400.000,1.000,1021.000,5.000,3.000
"07/02/06","06:12:57","AMMA06",63732.000,"cc",28288.434,6.00,2828.844,1,6,0.100,29443.000,0.200,26000.000,0.300,5898.000,0.500,1411.000,1.000,979.000,5.000,1.000
"07/02/06","06:13:03","AMMA06",63572.000,"cc",28297.606,6.00,2829.761,1,6,0.100,29465.000,0.200,26078.000,0.300,5669.000,0.500,1413.000,1.000,946.000,5.000,1.000
"07/02/06","06:13:09","AMMA06",63545.000,"cc",28350.465,6.00,2835.047,1,6,0.100,29233.000,0.200,26211.000,0.300,5681.000,0.500,1406.000,1.000,1014.000,5.000,0
"07/02/06","06:13:15","AMMA06",63938.000,"cc",28351.248,6.00,2835.125,1,6,0.100,29436.000,0.200,26322.000,0.300,5697.000,0.500,1477.000,1.000,1006.000,5.000,0
"07/02/06","06:13:21","AMMA06",63687.000,"cc",28256.920,6.00,2825.692,1,6,0.100,29622.000,0.200,25987.000,0.300,5615.000,0.500,1475.000,1.000,987.000,5.000,1.000
"07/02/06","06:13:27","AMMA06",63669.000,"cc",28331.736,6.00,2833.174,1,6,0.100,29478.000,0.200,26145.000,0.300,5599.000,0.500,1428.000,1.000,1016.000,5.000,3.000
"07/02/06","06:13:33","AMMA06",63595.000,"cc",28255.008,6.00,2825.501,1,6,0.100,29261.000,0.200,26248.000,0.300,5654.000,0.500,1436.000,1.000,996.000,5.000,0
"07/02/06","06:13:39","AMMA06",63920.000,"cc",28328.746,6.00,2832.875,1,6,0.100,29807.000,0.200,26056.000,0.300,5667.000,0.500,1418.000,1.000,972.000,5.000,0
"07/02/06","06:13:45","AMMA06",63637.000,"cc",28338.953,6.00,2833.896,1,6,0.100,29619.000,0.200,26213.000,0.300,5483.000,0.500,1390.000,1.000,931.000,5.000,1.000
"07/02/06","06:13:51","AMMA06",63687.000,"cc",28317.484,6.00,2831.749,1,6,0.100,29718.000,0.200,25896.000,0.300,5666.000,0.500,1376.000,1.000,1031.000,5.000,0
"07/02/06","06:13:57","AMMA06",63479.000,"cc",28323.268,6.00,2832.327,1,6,0.100,29464.000,0.200,25924.000,0.300,5606.000,0.500,1478.000,1.000,1005.000,5.000,2.000